Location: Slave Lake
(55.2830°N, 114.7830°W)
Time: 23:21:45
(UTC-06:00)

Amateur Radio Satellites - All Passes

Search period start: 30 July 2014 22:51
Search period end: 31 July 2014 22:51
Location: Slave Lake, 55.2830°N, 114.7830°W

Satellite Date Start Highest point End Downlink Frequencies (MHz)
Time Altitude Azimuth
Oscar 11 30 Jul 22:57:34 23:01:41 43° 262° (W) 23:05:50 145.825 FM, Beacon 2401.500 USB
SO-50 30 Jul 23:07:24 23:08:18 11° 251° (WSW) 23:09:12 436.795 FM
UOSAT-12 30 Jul 23:13:53 23:18:30 53° 231° (SW) 23:23:05 437.025 FM, 437.400 FM
FUNcube-1 30 Jul 23:24:36 23:28:48 55° 259° (W) 23:32:57 145.950 - 145.970 MHz USB
MaSat-1 30 Jul 23:28:21 23:32:49 51° 316° (NW) 23:37:50 437.345 MHz
RS-15 30 Jul 23:39:33 23:49:54 50° 243° (WSW) 00:00:34 29.354 - 29.394 USB, Beacon 29.352 USB
ISS 31 Jul 00:03:56 00:05:21 12° 143° (SE) 00:06:45 145.800 FM
PCSat 31 Jul 00:04:34 00:06:00 11° 101° (ESE) 00:07:27 145.825 MHz
Oscar 10/S400 31 Jul 00:09:10 00:35:00 41° 164° (SSE) 06:59:13 145.825 - 145.975 CW/USB, Beacon 145.810 USB
AO-40 31 Jul 00:43:56 05:11:52 24° 183° (S) 10:02:10 Beacon 2401.320
UOSAT-12 31 Jul 00:56:23 00:57:40 11° 251° (WSW) 00:58:57 437.025 FM, 437.400 FM
MaSat-1 31 Jul 01:07:35 01:11:19 21° 340° (NNW) 01:15:16 437.345 MHz
Sapphire 31 Jul 01:10:35 01:15:16 31° 115° (ESE) 01:19:58 437.095 MHz 1200 baud AX-25 AFSK
ISS 31 Jul 01:38:18 01:41:21 32° 163° (SSE) 01:44:24 145.800 FM
PCSat 31 Jul 01:43:00 01:48:14 52° 122° (ESE) 01:53:31 145.825 MHz
RS-15 31 Jul 01:54:29 01:59:19 14° 268° (W) 02:04:13 29.354 - 29.394 USB, Beacon 29.352 USB
Oscar 16 31 Jul 01:54:35 01:57:31 15° 84° (E) 02:00:27 437.025 USB, Beacon 2401.1428
OPAL 31 Jul 02:01:08 02:02:52 12° 38° (NE) 02:04:37 ?
JAS-1B 31 Jul 02:03:51 02:08:33 15° 68° (ENE) 02:12:59 435.800 - 435.900 CW/SSB
ITAMSAT 1 31 Jul 02:20:52 02:22:44 12° 82° (E) 02:24:35 435.822 SSB
Uribyol 2 31 Jul 02:38:38 02:42:01 17° 86° (E) 02:45:22 436.500 FM
AO-27 31 Jul 02:39:35 02:42:56 17° 86° (E) 02:46:17 436.795 MHz FM
MaSat-1 31 Jul 02:47:08 02:50:28 17° 4° (N) 02:53:53 437.345 MHz
Sapphire 31 Jul 02:52:57 02:58:22 70° 316° (NW) 03:03:49 437.095 MHz 1200 baud AX-25 AFSK
AO-Echo 31 Jul 03:03:08 03:07:24 26° 91° (E) 03:11:31 ?
Oscar 19 31 Jul 03:03:50 03:08:49 46° 99° (E) 03:13:48 437.125 CW, 437.150 USB
ISS 31 Jul 03:14:29 03:17:43 45° 182° (S) 03:20:57 145.800 FM
Gurwin Techsat 1B 31 Jul 03:14:32 03:17:46 16° 85° (E) 03:20:59 435.225 FM
PCSat 31 Jul 03:26:33 03:31:48 47° 325° (NW) 03:37:04 145.825 MHz
Oscar 16 31 Jul 03:32:35 03:37:47 77° 105° (ESE) 03:42:58 437.025 USB, Beacon 2401.1428
OPAL 31 Jul 03:35:59 03:40:37 42° 60° (ENE) 03:45:18 ?
JAS-1B 31 Jul 03:52:31 04:01:50 50° 94° (E) 04:09:54 435.800 - 435.900 CW/SSB
ITAMSAT 1 31 Jul 03:58:11 04:03:21 61° 102° (ESE) 04:08:28 435.822 SSB
Uribyol 2 31 Jul 04:17:04 04:22:17 87° 107° (ESE) 04:27:27 436.500 FM
AO-27 31 Jul 04:18:02 04:23:16 85° 107° (ESE) 04:28:28 436.795 MHz FM
MaSat-1 31 Jul 04:25:05 04:29:29 26° 28° (NNE) 04:33:54 437.345 MHz
TMSAT-1 31 Jul 04:27:27 04:32:29 41° 97° (E) 04:37:28 436.925 FM
AO-7 31 Jul 04:29:48 04:35:23 19° 83° (E) 04:40:54 29.400 - 29.500 MHz
Sapphire 31 Jul 04:37:57 04:42:41 29° 340° (NNW) 04:47:25 437.095 MHz 1200 baud AX-25 AFSK
AO-Echo 31 Jul 04:41:31 04:46:36 62° 292° (WNW) 04:51:29 ?
Oscar 19 31 Jul 04:43:23 04:48:07 37° 299° (WNW) 04:52:51 437.125 CW, 437.150 USB
ISS 31 Jul 04:51:08 04:54:02 27° 202° (SSW) 04:56:55 145.800 FM
Gurwin Techsat 1B 31 Jul 04:53:17 04:58:39 79° 105° (ESE) 05:03:58 435.225 FM
Uosat F 31 Jul 05:02:15 05:06:09 22° 90° (E) 05:10:01 435.120 FM
PCSat 31 Jul 05:11:58 05:16:27 25° 349° (N) 05:20:56 145.825 MHz
Oscar 16 31 Jul 05:12:35 05:16:42 25° 306° (NW) 05:20:49 437.025 USB, Beacon 2401.1428
OPAL 31 Jul 05:14:57 05:19:35 39° 260° (W) 05:24:16 ?
ITAMSAT 1 31 Jul 05:38:08 05:42:35 30° 303° (WNW) 05:47:00 435.822 SSB
JAS-1B 31 Jul 05:43:08 05:52:36 61° 299° (WNW) 06:00:54 435.800 - 435.900 CW/SSB
KITSAT 1 31 Jul 05:55:22 06:01:31 25° 106° (ESE) 06:07:39 435.175 FM
Uribyol 2 31 Jul 05:57:18 06:01:13 22° 308° (NW) 06:05:07 436.500 FM
AO-27 31 Jul 05:58:17 06:02:15 23° 308° (NW) 06:06:12 436.795 MHz FM
MaSat-1 31 Jul 06:02:21 06:07:40 71° 50° (NE) 06:12:52 437.345 MHz
STRAND 1 31 Jul 06:03:17 06:07:42 30° 57° (ENE) 06:12:06 ?
TMSAT-1 31 Jul 06:07:29 06:12:28 43° 297° (WNW) 06:17:26 436.925 FM
AO-Echo 31 Jul 06:21:31 06:24:27 16° 313° (NW) 06:27:19 ?
AO-7 31 Jul 06:21:32 06:29:53 67° 106° (ESE) 06:38:09 29.400 - 29.500 MHz
Sapphire 31 Jul 06:23:18 06:27:42 24° 6° (N) 06:32:06 437.095 MHz 1200 baud AX-25 AFSK
Oscar 19 31 Jul 06:25:25 06:26:11 10° 321° (NW) 06:26:57 437.125 CW, 437.150 USB
Gurwin Techsat 1B 31 Jul 06:33:54 06:38:08 25° 306° (NW) 06:42:22 435.225 FM
Uosat F 31 Jul 06:40:27 06:45:30 73° 290° (WNW) 06:50:29 435.120 FM
JAS-2 31 Jul 06:40:35 06:44:44 19° 82° (E) 06:48:35 435.800 - 435.900 CW/SSB, 435.910 FM
PCSat 31 Jul 06:56:53 07:01:30 27° 15° (NNE) 07:06:05 145.825 MHz
Hamsat 31 Jul 07:29:15 07:33:25 45° 98° (E) 07:37:35 145.90 MHz
JAS-1B 31 Jul 07:33:54 07:41:18 26° 324° (NW) 07:48:11 435.800 - 435.900 CW/SSB
MaSat-1 31 Jul 07:40:10 07:44:40 29° 251° (WSW) 07:49:01 437.345 MHz
STRAND 1 31 Jul 07:41:32 07:46:38 61° 258° (WSW) 07:51:45 ?
KITSAT 1 31 Jul 07:47:41 07:55:46 77° 129° (SE) 08:03:53 435.175 FM
TMSAT-1 31 Jul 07:49:18 07:51:10 12° 319° (NW) 07:53:02 436.925 FM
SO-67 31 Jul 07:52:43 07:54:42 14° 88° (E) 07:56:40 435.3500 MHz FM
Sapphire 31 Jul 08:07:22 08:12:30 40° 31° (NNE) 08:17:37 437.095 MHz 1200 baud AX-25 AFSK
Saudisat 1A 31 Jul 08:10:06 08:13:59 31° 122° (ESE) 08:17:54 436.775 MHz
AO-7 31 Jul 08:14:41 08:22:26 45° 310° (NW) 08:30:08 29.400 - 29.500 MHz
Uosat F 31 Jul 08:20:17 08:23:32 18° 311° (NW) 08:26:46 435.120 FM
JAS-2 31 Jul 08:24:44 08:30:58 87° 107° (ESE) 08:36:28 435.800 - 435.900 CW/SSB, 435.910 FM
PCSat 31 Jul 08:40:36 08:45:59 57° 40° (NE) 08:51:20 145.825 MHz
Hamsat 31 Jul 09:05:32 09:09:15 29° 298° (WNW) 09:12:59 145.90 MHz
JAS-1B 31 Jul 09:23:40 09:28:37 16° 350° (N) 09:33:27 435.800 - 435.900 CW/SSB
SO-67 31 Jul 09:24:42 09:28:11 63° 288° (WNW) 09:31:37 435.3500 MHz FM
STRAND 1 31 Jul 09:25:12 09:26:56 12° 278° (W) 09:28:40 ?
KITSAT 1 31 Jul 09:43:54 09:51:46 51° 334° (NNW) 09:59:39 435.175 FM
Saudisat 1A 31 Jul 09:48:58 09:53:22 63° 323° (NW) 09:57:48 436.775 MHz
Sapphire 31 Jul 09:50:53 09:56:17 67° 234° (SW) 10:01:40 437.095 MHz 1200 baud AX-25 AFSK
UKube-1 31 Jul 09:56:18 09:58:56 16° 88° (E) 10:01:33 145.840 MHz, 145.915 MHz
HO-68 31 Jul 10:07:30 10:13:58 35° 94° (E) 10:20:23 435.675 MHz FM
AO-7 31 Jul 10:07:46 10:13:19 20° 335° (NNW) 10:18:51 29.400 - 29.500 MHz
JAS-2 31 Jul 10:10:26 10:15:20 25° 311° (NW) 10:19:49 435.800 - 435.900 CW/SSB, 435.910 FM
PCSat 31 Jul 10:24:16 10:29:19 40° 242° (WSW) 10:34:21 145.825 MHz
Oscar 11 31 Jul 10:38:06 10:41:30 22° 91° (E) 10:44:54 145.825 FM, Beacon 2401.500 USB
FUNcube-1 31 Jul 11:07:04 11:09:52 17° 89° (E) 11:12:40 145.950 - 145.970 MHz USB
JAS-1B 31 Jul 11:10:00 11:15:30 17° 17° (NNE) 11:20:57 435.800 - 435.900 CW/SSB
Saudisat 1A 31 Jul 11:29:51 11:33:42 28° 346° (NNW) 11:37:32 436.775 MHz
UKube-1 31 Jul 11:31:23 11:35:47 85° 288° (WNW) 11:40:08 145.840 MHz, 145.915 MHz
Sapphire 31 Jul 11:35:43 11:38:47 15° 255° (WSW) 11:41:50 437.095 MHz 1200 baud AX-25 AFSK
KITSAT 1 31 Jul 11:41:25 11:48:56 39° 3° (N) 11:56:27 435.175 FM
Oscar 16 31 Jul 11:42:59 11:44:47 12° 42° (NE) 11:46:35 437.025 USB, Beacon 2401.1428
HO-68 31 Jul 11:55:06 12:02:13 68° 296° (WNW) 12:09:16 435.675 MHz FM
AO-7 31 Jul 11:59:01 12:03:09 15° 2° (N) 12:07:17 29.400 - 29.500 MHz
RS-15 31 Jul 12:06:43 12:11:52 15° 93° (E) 12:16:59 29.354 - 29.394 USB, Beacon 29.352 USB
ITAMSAT 1 31 Jul 12:10:17 12:11:23 11° 39° (NE) 12:12:28 435.822 SSB
Oscar 11 31 Jul 12:13:46 12:18:04 59° 291° (WNW) 12:22:20 145.825 FM, Beacon 2401.500 USB
Uribyol 2 31 Jul 12:27:15 12:29:48 14° 44° (NE) 12:32:20 436.500 FM
AO-27 31 Jul 12:28:25 12:30:59 14° 44° (NE) 12:33:33 436.795 MHz FM
FUNcube-1 31 Jul 12:42:36 12:46:47 71° 288° (WNW) 12:50:58 145.950 - 145.970 MHz USB
AO-Echo 31 Jul 12:46:32 12:49:56 18° 49° (NE) 12:53:20 ?
Oscar 19 31 Jul 12:49:59 12:54:17 28° 57° (ENE) 12:58:38 437.125 CW, 437.150 USB
JAS-1B 31 Jul 12:55:04 13:03:05 31° 42° (NE) 13:11:13 435.800 - 435.900 CW/SSB
Gurwin Techsat 1B 31 Jul 13:06:08 13:08:33 13° 43° (NE) 13:10:59 435.225 FM
UKube-1 31 Jul 13:08:37 13:11:24 17° 308° (NW) 13:14:10 145.840 MHz, 145.915 MHz
Saudisat 1A 31 Jul 13:10:39 13:14:26 26° 10° (N) 13:18:13 436.775 MHz
Oscar 16 31 Jul 13:18:09 13:22:59 44° 63° (ENE) 13:27:51 437.025 USB, Beacon 2401.1428
SO-50 31 Jul 13:25:44 13:30:01 45° 127° (SE) 13:34:24 436.795 FM
KITSAT 1 31 Jul 13:37:59 13:45:58 57° 31° (NNE) 13:53:55 435.175 FM
HO-68 31 Jul 13:43:29 13:48:51 24° 319° (NW) 13:54:12 435.675 MHz FM
ITAMSAT 1 31 Jul 13:44:49 13:49:35 38° 61° (ENE) 13:54:23 435.822 SSB
AO-7 31 Jul 13:47:08 13:53:05 22° 29° (NNE) 13:59:02 29.400 - 29.500 MHz
Oscar 11 31 Jul 13:51:40 13:53:26 12° 311° (NW) 13:55:12 145.825 FM, Beacon 2401.500 USB
Uribyol 2 31 Jul 14:03:14 14:08:15 52° 65° (ENE) 14:13:17 436.500 FM
AO-27 31 Jul 14:04:25 14:09:28 52° 65° (ENE) 14:14:32 436.795 MHz FM
RS-15 31 Jul 14:10:53 14:21:20 52° 118° (ESE) 14:31:42 29.354 - 29.394 USB, Beacon 29.352 USB
TMSAT-1 31 Jul 14:17:04 14:21:27 27° 56° (NE) 14:25:52 436.925 FM
FUNcube-1 31 Jul 14:20:28 14:22:31 13° 308° (NW) 14:24:33 145.950 - 145.970 MHz USB
AO-Echo 31 Jul 14:22:36 14:27:54 68° 69° (ENE) 14:33:10 ?
Oscar 19 31 Jul 14:28:15 14:33:20 64° 257° (WSW) 14:38:28 437.125 CW, 437.150 USB
Gurwin Techsat 1B 31 Jul 14:42:19 14:47:25 48° 64° (ENE) 14:52:32 435.225 FM
JAS-1B 31 Jul 14:42:46 14:52:11 73° 66° (ENE) 15:02:05 435.800 - 435.900 CW/SSB
Uosat F 31 Jul 14:46:28 14:49:25 16° 47° (NE) 14:52:21 435.120 FM
Saudisat 1A 31 Jul 14:50:29 14:54:51 54° 34° (NNE) 14:59:11 436.775 MHz
Oscar 16 31 Jul 14:57:41 15:02:27 38° 264° (W) 15:07:15 437.025 USB, Beacon 2401.1428
SO-50 31 Jul 15:06:11 15:10:36 49° 329° (NNW) 15:15:09 436.795 FM
UOSAT-12 31 Jul 15:11:14 15:15:35 41° 125° (SE) 15:20:01 437.025 FM, 437.400 FM
JAS-2 31 Jul 15:21:17 15:22:21 10° 28° (NNE) 15:23:24 435.800 - 435.900 CW/SSB, 435.910 FM
ITAMSAT 1 31 Jul 15:24:03 15:29:03 46° 261° (W) 15:34:05 435.822 SSB
HO-68 31 Jul 15:32:24 15:34:10 11° 344° (NNW) 15:35:56 435.675 MHz FM
KITSAT 1 31 Jul 15:33:41 15:41:39 64° 236° (SW) 15:49:34 435.175 FM
AO-7 31 Jul 15:36:14 15:44:13 52° 54° (NE) 15:52:13 29.400 - 29.500 MHz
Uribyol 2 31 Jul 15:43:21 15:47:59 32° 266° (W) 15:52:39 436.500 FM
AO-27 31 Jul 15:44:33 15:49:14 33° 265° (W) 15:53:56 436.795 MHz FM
TMSAT-1 31 Jul 15:55:43 16:01:01 70° 256° (WSW) 16:06:20 436.925 FM
AO-Echo 31 Jul 16:02:45 16:07:08 25° 270° (W) 16:11:30 ?
Oscar 19 31 Jul 16:11:43 16:13:45 12° 278° (W) 16:15:48 437.125 CW, 437.150 USB
RS-15 31 Jul 16:22:22 16:33:22 74° 326° (NW) 16:44:24 29.354 - 29.394 USB, Beacon 29.352 USB
Uosat F 31 Jul 16:22:22 16:27:21 63° 68° (ENE) 16:32:21 435.120 FM
Gurwin Techsat 1B 31 Jul 16:22:42 16:27:34 36° 265° (W) 16:32:28 435.225 FM
Saudisat 1A 31 Jul 16:30:16 16:34:22 37° 235° (SW) 16:38:26 436.775 MHz
JAS-1B 31 Jul 16:34:28 16:43:16 43° 269° (W) 16:52:37 435.800 - 435.900 CW/SSB
SO-50 31 Jul 16:48:09 16:52:06 27° 353° (N) 16:56:07 436.795 FM
UOSAT-12 31 Jul 16:51:06 16:55:42 55° 327° (NNW) 17:00:23 437.025 FM, 437.400 FM
Hamsat 31 Jul 16:56:04 16:58:27 15° 53° (NE) 17:00:51 145.90 MHz
JAS-2 31 Jul 16:59:23 17:05:26 28° 52° (NE) 17:11:01 435.800 - 435.900 CW/SSB, 435.910 FM
OPAL 31 Jul 17:17:00 17:21:27 30° 97° (E) 17:25:55 ?
HO-68 31 Jul 17:18:01 17:18:51 10° 11° (NNE) 17:19:41 435.675 MHz FM
AO-7 31 Jul 17:28:52 17:37:03 56° 257° (WSW) 17:45:17 29.400 - 29.500 MHz
KITSAT 1 31 Jul 17:30:24 17:35:33 19° 259° (W) 17:40:42 435.175 FM
TMSAT-1 31 Jul 17:39:14 17:41:57 14° 277° (W) 17:44:41 436.925 FM
Uosat F 31 Jul 18:02:23 18:06:33 26° 268° (W) 18:10:45 435.120 FM
Hamsat 31 Jul 18:29:35 18:33:47 80° 73° (ENE) 18:38:03 145.90 MHz
SO-50 31 Jul 18:29:40 18:33:50 31° 17° (NNE) 18:38:06 436.795 FM
UOSAT-12 31 Jul 18:32:38 18:36:44 28° 350° (N) 18:40:51 437.025 FM, 437.400 FM
SO-67 31 Jul 18:33:01 18:35:20 17° 59° (ENE) 18:37:40 435.3500 MHz FM
JAS-1B 31 Jul 18:33:14 18:36:48 12° 294° (WNW) 18:40:26 435.800 - 435.900 CW/SSB
RS-15 31 Jul 18:36:47 18:47:26 52° 358° (N) 18:58:13 29.354 - 29.394 USB, Beacon 29.352 USB
JAS-2 31 Jul 18:42:12 18:49:51 86° 72° (ENE) 18:56:46 435.800 - 435.900 CW/SSB, 435.910 FM
OPAL 31 Jul 18:55:41 19:00:39 56° 296° (WNW) 19:05:39 ?
HO-68 31 Jul 18:59:05 19:04:00 21° 37° (NE) 19:08:55 435.675 MHz FM
AO-7 31 Jul 19:27:28 19:31:54 15° 281° (W) 19:36:21 29.400 - 29.500 MHz
STRAND 1 31 Jul 19:44:57 19:49:19 28° 92° (E) 19:53:39 ?
SO-67 31 Jul 20:04:38 20:08:04 58° 259° (W) 20:11:32 435.3500 MHz FM
Hamsat 31 Jul 20:07:48 20:10:21 16° 273° (W) 20:12:56 145.90 MHz
SO-50 31 Jul 20:10:20 20:15:03 76° 40° (NE) 20:19:51 436.795 FM
UOSAT-12 31 Jul 20:13:52 20:18:05 30° 15° (NNE) 20:22:17 437.025 FM, 437.400 FM
JAS-2 31 Jul 20:29:20 20:35:35 27° 271° (W) 20:41:26 435.800 - 435.900 CW/SSB, 435.910 FM
OPAL 31 Jul 20:35:48 20:38:38 15° 317° (NW) 20:41:29 ?
HO-68 31 Jul 20:43:27 20:50:25 57° 60° (ENE) 20:57:23 435.675 MHz FM
RS-15 31 Jul 20:50:44 21:01:41 68° 30° (NNE) 21:12:53 29.354 - 29.394 USB, Beacon 29.352 USB
UKube-1 31 Jul 20:58:17 21:02:14 34° 62° (ENE) 21:06:12 145.840 MHz, 145.915 MHz
STRAND 1 31 Jul 21:23:51 21:28:54 59° 293° (WNW) 21:33:54 ?
MaSat-1 31 Jul 21:37:28 21:41:34 37° 113° (ESE) 21:46:09 437.345 MHz
Oscar 11 31 Jul 21:39:56 21:43:59 42° 66° (ENE) 21:48:04 145.825 FM, Beacon 2401.500 USB
SO-50 31 Jul 21:51:20 21:55:17 27° 240° (WSW) 21:59:18 436.795 FM
UOSAT-12 31 Jul 21:54:12 21:58:58 68° 38° (NE) 22:03:41 437.025 FM, 437.400 FM
FUNcube-1 31 Jul 22:10:17 22:14:08 34° 64° (ENE) 22:17:56 145.950 - 145.970 MHz USB
HO-68 31 Jul 22:31:36 22:38:22 44° 262° (W) 22:45:11 435.675 MHz FM
UKube-1 31 Jul 22:34:20 22:38:26 39° 262° (W) 22:42:34 145.840 MHz, 145.915 MHz
